Regional Weather Roundup
Issued by NWS

Home | Current Version | Previous Version | Text Only | Print | Product List | Glossary On
Versions: 1 2 3 4 5 6 7 8 9 10 11 12 13 14 15 16 17 18 19 20 21 22 23 24 25 26 27 28 29 30 31 32 33 34 35 36 37 38 39 40 41 42 43 44 45 46 47 48 49 50
000
ASUS45 KREV 290010
RWRNV
NEVADA REGIONAL WEATHER ROUNDUP
NATIONAL WEATHER SERVICE RENO NV
500 PM PDT THU MAY 28 2015

NOTE: "FAIR" INDICATES FEW OR NO CLOUDS BELOW 12,000 FEET WITH NO
SIGNIFICANT WEATHER AND/OR OBSTRUCTIONS TO VISIBILITY.

NVZ001-003-004-290100-
WESTERN NEVADA

CITY           SKY/WX    TMP DP  RH WIND       PRES   REMARKS
RENO           PTSUNNY   83  29  14 NE6       30.02F
6HR MIN TEMP:  72; 6HR MAX TEMP:  84;

CARSON CITY    FAIR      81  21  11 SW7       30.05F
MINDEN         FAIR      81  27  13 NW15      30.06
SLIDE MTN        N/A     57  32  38 W6          N/A
FALLON         PTSUNNY   84  33  16 N10       30.01S
6HR MIN TEMP:  75; 6HR MAX TEMP:  85;

LOVELOCK       MOSUNNY   80  36  20 N9        30.02S
6HR MIN TEMP:  75; 6HR MAX TEMP:  83;

HAWTHORNE      SUNNY     82  28  14 NW9       30.01F
$$

NVZ002-CAZ072-073-290100-
NORTHERN AND CENTRAL SIERRA

CITY           SKY/WX    TMP DP  RH WIND       PRES   REMARKS
S. LAKE TAHOE  MOSUNNY   73  27  18 NE9       30.16S
6HR MIN TEMP:  65; 6HR MAX TEMP:  75;

TRUCKEE        MOSUNNY   72  28  20 W13       30.14F
                   6HR MAX TEMP:  73;

SQUAW VLY 8000   N/A     61  36  39 SW8         N/A
SUSANVILLE     SUNNY     81  36  19 E6        30.03F
BLUE CANYON    MOSUNNY   69  35  28 VRB5      30.17S
MAMMOTH LAKES  FAIR      72  19  14 W14       30.18S
BRIDGEPORT     FAIR      72  27  18 SW6       30.15S
$$

NVZ030-031-036-290100-
NORTHERN NEVADA

CITY           SKY/WX    TMP DP  RH WIND       PRES   REMARKS
ELKO           MOSUNNY   74  36  25 MISG      30.09S
6HR MIN TEMP:  64; 6HR MAX TEMP:  76; 6HR PCP:  0.01;

WINNEMUCCA     MOSUNNY   77  34  21 SW7       30.06S
6HR MIN TEMP:  71; 6HR MAX TEMP:  79;

WENDOVER       PTSUNNY   73  46  38 SE3       30.08S
$$

NVZ035-037-290100-
CENTRAL NEVADA

CITY           SKY/WX    TMP DP  RH WIND       PRES   REMARKS
ELY            CLOUDY    69  35  28 NE10      30.13F
6HR MIN TEMP:  64; 6HR MAX TEMP:  71; 6HR PCP: TRACE;

EUREKA           N/A     75  35  23 N13       30.12S
6HR MIN TEMP:  67; 6HR MAX TEMP:  75;

$$

NVZ013-014-290100-
SOUTH CENTRAL NEVADA

CITY           SKY/WX    TMP DP  RH WIND       PRES   REMARKS
TONOPAH        MOSUNNY   82  22  11 N9        30.06F
6HR MIN TEMP:  73; 6HR MAX TEMP:  83;

$$

NVZ017-020-022-290100-
SOUTHERN NEVADA

CITY           SKY/WX    TMP DP  RH WIND       PRES   REMARKS
LAS VEGAS      MOSUNNY   96  28   9 SE10      29.80F
6HR MIN TEMP:  86; 6HR MAX TEMP:  97;

N. LAS VEGAS   MOSUNNY   95  24   8 E10       29.83F
6HR MIN TEMP:  85; 6HR MAX TEMP:  95;

NELLIS AFB     MOSUNNY   95  31  10 SE6       29.81F
6HR MIN TEMP:  86; 6HR MAX TEMP:  96;

HENDERSON      MOSUNNY   94  34  12 SE5       29.87F
6HR MIN TEMP:  85; 6HR MAX TEMP:  96;

MERCURY        MOSUNNY   91  23   8 SW15G22   29.91F
6HR MIN TEMP:  85; 6HR MAX TEMP:  94;

$$


USA.gov is the U.S. government's official web portal to all federal, state and local government web resources and services.